Location: Frydek-Mistek
(49.6830°N, 18.3330°E)
Time: 04:46:40
(UTC+02:00)

Courier 1B Rocket - All Passes

Search period start: 26 April 2015 00:00
Search period end: 06 May 2015 00:00
Orbit: 920 x 1202 km, 28.2° (Epoch: 25 April)

Date Brightness Start Highest point End Pass type
(mag) Time Alt. Az. Time Alt. Az. Time Alt. Az.
26 Apr - 02:42:07 10° SSW 02:44:33 12° S 02:47:02 10° SSE visible
27 Apr - 01:42:12 10° S 01:43:57 11° S 01:45:46 10° SSE visible
27 Apr - 03:34:50 10° SSW 03:36:01 10° S 03:37:09 10° S visible
28 Apr - 02:33:39 10° SSW 02:35:25 11° S 02:37:11 10° S visible
29 Apr - 01:33:13 10° SSW 01:34:49 11° S 01:36:28 10° SSE night (unlit)
30 Apr - 00:33:49 10° S 00:34:16 10° S 00:34:46 10° S night (unlit)
